Regional Weather Roundup
Issued by NWS

Home | Current Version | Previous Version | Graphics & Text | Print | Product List | Glossary Off
Versions: 1 2 3 4 5 6 7 8 9 10 11 12 13 14 15 16 17 18 19 20 21 22 23 24 25 26 27 28 29 30 31 32 33 34 35 36 37 38 39 40 41 42 43 44 45 46 47 48 49 50

000
ASUS43 KLSX 251510
RWRMO

WEATHER SUMMARY FOR MISSOURI
NATIONAL WEATHER SERVICE SPRINGFIELD MO
1000 AM CDT TUE APR 25 2017

NOTE: "FAIR" INDICATES FEW OR NO CLOUDS BELOW 12,000 FEET WITH NO
       SIGNIFICANT WEATHER AND/OR OBSTRUCTIONS TO VISIBILITY.
       CURRENT SKY AND/OR WEATHER CONDITIONS ARE NOT AVAILABLE FOR
       CHILLICOTHE AND FARMINGTON.

MOZ001>031-035>038-043-044-053-054-251600-
...NORTHERN AND WESTERN MISSOURI...

CITY           SKY/WX    TMP DP  RH WIND       PRES   REMARKS
KANSAS CTY INT CLOUDY    65  48  54 SE15      29.45F
KANSAS C DTWN  CLOUDY    66  47  50 S10G16    29.45F
LEE`S SUMMIT   MOSUNNY   64  48  56 S14G22    29.46F
ST JOSEPH      CLOUDY    65  50  58 S14       29.45F
CHILLICOTHE      N/A     64  45  49 S8        29.51F
KIRKSVILLE     CLOUDY    60  46  59 SE8       29.57S

$$
MOZ066>068-077>081-088>096-101>105-251600-
...SOUTHWEST MISSOURI...

CITY           SKY/WX    TMP DP  RH WIND       PRES   REMARKS
SPRINGFIELD    SUNNY     67  49  52 S23G31    29.53F
JOPLIN         MOSUNNY   69  52  54 S16G31    29.47F
BRANSON        PTSUNNY   66  48  52 SE16G22   29.58F

$$
MOZ032>034-039>042-045>050-055>058-069>072-251600-
...CENTRAL MISSOURI...

CITY           SKY/WX    TMP DP  RH WIND       PRES   REMARKS
COLUMBIA       CLOUDY    66  49  54 SE12      29.58R
JEFFERSON CITY CLOUDY    67  47  48 SE10      29.57F
ROLLA          CLOUDY    68  50  52 S14G23    29.58F
SEDALIA        MOSUNNY   65  50  58 SE10      29.53F
WHITEMAN AFB   PTSUNNY   65  49  57 S12       29.49F
OSAGE BEACH    CLOUDY    68  48  48 S12G18    29.56F

$$
MOZ051-052-059>065-251600-
...EAST CENTRAL MISSOURI...

CITY           SKY/WX    TMP DP  RH WIND       PRES   REMARKS
ST LOUIS INTL  MOSUNNY   72  49  44 S16       29.66F
SPIRIT OF STL  CLOUDY    70  50  49 S7G17     29.64F
ST CHARLES     SUNNY     72  50  45 S16       29.64F

$$
MOZ072>076-082>087-097>100-106>115-251600-
...SOUTH CENTRAL AND SOUTHEAST MISSOURI...

CITY           SKY/WX    TMP DP  RH WIND       PRES   REMARKS
CAPE GIRARDEAU MOSUNNY   67  58  72 S8        29.72F
FARMINGTON     SUNNY     67  52  58 S13G20    29.69F
POPLAR BLUFF   SUNNY     68  57  68 S12       29.71S
WEST PLAINS    SUNNY     66  48  52 S16G26    29.65F

$$




USA.gov is the U.S. government's official web portal to all federal, state and local government web resources and services.